This demonstration page uses our WeatherBlox Daily Observations layout. Learn more.

Left ArrowRight Arrow

39.12711, -84.51439

Hourly Observations for May 23, 2022

Temp ( °F °C ) Dew Point ( °F °C ) Humidity (%) Winds ( mph kmh ) Pressure ( in mb ) Visibility ( mi km ) Precip ( " mm )
12:53 am 00:53 Mostly Cloudy 59 15 43 6.1 56 56 N 10 17 30.29 1026 10 16 0.00 0.00
1:53 am 01:53 Clear 57 13.9 39 3.9 51 51 NNE 9 15 30.29 1026 10 16 0.00 0.00
2:53 am 02:53 Clear 56 13.3 40 4.4 55 55 NNE 9 15 30.28 1025 10 16 0.00 0.00
3:53 am 03:53 Clear 54 12.2 40 4.4 59 59 NNE 7 11 30.28 1026 10 16 0.00 0.00
4:53 am 04:53 Clear 53 11.7 40 4.4 61 61 NNE 7 11 30.27 1025 10 16 0.00 0.00
5:53 am 05:53 Clear 53 11.7 40 4.4 61 61 NNE 7 11 30.28 1025 10 16 0.00 0.00
6:53 am 06:53 Sunny 53 11.7 39 3.9 59 59 NNE 8 13 30.28 1025 10 16 0.00 0.00
7:53 am 07:53 Sunny 53 11.7 41 5 64 64 NNE 8 13 30.29 1026 10 16 0.00 0.00
8:53 am 08:53 Cloudy 54 12.2 41 5 62 62 NNE 9 15 30.29 1026 10 16 0.00 0.00
9:53 am 09:53 Cloudy 55 12.8 43 6.1 64 64 NNE 8 13 30.30 1026 10 16 0.00 0.00
10:53 am 10:53 Cloudy 56 13.3 44 6.7 65 65 NE 10 17 30.27 1025 10 16 0.00 0.00
11:53 am 11:53 Cloudy 58 14.4 46 7.8 65 65 N 10 17 30.26 1025 10 16 0.00 0.00
12:53 pm 12:53 Mostly Cloudy 60 15.6 48 8.9 65 65 NE 7 11 30.25 1024 10 16 0.00 0.00
1:53 pm 13:53 Cloudy 61 16.1 50 10 67 67 ENE 7 11 30.23 1024 10 16 0.00 0.00
2:53 pm 14:53 Cloudy 62 16.7 52 11.1 70 70 NNE 7 11 30.22 1023 10 16 0.00 0.00
3:53 pm 15:53 Mostly Cloudy 64 17.8 54 12.2 70 70 NE 8 13 30.20 1023 10 16 0.00 0.00
4:53 pm 16:53 Cloudy with Light Rain 63 17.2 54 12.2 73 73 ENE 7 11 30.19 1022 10 16 0.00 0.00
5:53 pm 17:53 Cloudy 63 17.2 53 11.7 70 70 ENE 7 11 30.18 1022 10 16 0.00 0.00
6:53 pm 18:53 Cloudy 62 16.7 51 10.6 67 67 ENE 8 13 30.17 1022 10 16 0.00 0.00
7:53 pm 19:53 Mostly Cloudy 62 16.7 50 10 65 65 NE 7 11 30.18 1022 10 16 0.00 0.00
8:53 pm 20:53 Mostly Clear 59 15 51 10.6 75 75 Calm 30.19 1022 10 16 0.00 0.00
9:53 pm 21:53 Clear 54 12.2 52 11.1 93 93 Calm 30.19 1022 10 16 0.00 0.00
10:53 pm 22:53 Clear 52 11.1 50 10 93 93 Calm 30.19 1023 10 16 0.00 0.00
11:53 pm 23:53 Clear 51 10.6 50 10 96 96 Calm 30.19 1022 10 16 0.00 0.00

Powered by AerisWeather